Other Surface Observations
Issued by NWS

Current Version | Previous Version | Text Only | Print | Product List | Glossary On
Versions: 1 2 3 4 5 6 7 8 9 10 11 12 13 14 15 16 17 18 19 20 21 22 23 24 25 26 27 28 29 30 31 32 33 34 35 36 37 38 39 40 41 42 43 44 45 46 47 48 49 50
844
SXUS52 KTAE 280319
OSOTAE
OSOTAE
North Florida/South Alabama/Southwest Georgia Weather Roundup
National Weather Service Tallahassee Florida
1100 PM EDT THU APR 27 2017

Note: "fair" indicates few or no clouds below 12,000 feet with no
significant weather and/or obstructions to visibility.

!FLZ017-115-028-034-025-280400
...North Florida...

CITY           SKY/WX    TMP DP  RH WIND       PRES   REMARKS
TALLAHASSEE    CLEAR     74  73  97 S3        29.92R
APALACHICOLA   CLOUDY    76  76 100 S10       29.91R
PERRY          CLEAR     73  71  95 CALM      29.95R FOG
CROSS CITY     CLEAR     70  68  94 CALM      29.94R
JACKSONVILLE   CLEAR     73  69  87 CALM      29.95R
$$

!FLZ112-006-005-002-011-280400
...Florida Panhandle...

CITY           SKY/WX    TMP DP  RH WIND       PRES   REMARKS
MARIANNA       CLEAR     75  72  90 S6        29.90R
BONIFAY        NOT AVBL
PANAMA CITY NW FAIR      75  72  90 S8        29.89R
TYNDALL AFB    PTCLDY    75  73  94 S9        29.90R
TYND DRONE APT MOCLDY    73  73 100 S9        29.91R FOG
DE FUNIAK SPR  CLOUDY    73  73 100 S5        29.90R
EGLIN AFB      CLOUDY    75  73  93 S9        29.88R
DESTIN         CLOUDY    78  78 100 VRB7      29.88R
HURLBURT       CLOUDY    75  73  93 S12       29.87R
CRESTVIEW      CLOUDY    75  72  90 S5        29.90R
PENSACOLA      CLOUDY    77  73  87 S10       29.86R
$$

!ALZ063-066-280400
...South Alabama...

CITY           SKY/WX    TMP DP  RH WIND       PRES   REMARKS
DOTHAN         CLOUDY    75  73  93 S10       29.93R
OZARK CAIRNS   CLOUDY    75  72  89 S7        29.89R
FT RUCKER HELI CLOUDY    75  72  90 S7        29.89R
RUCKER HELI 3  MOCLDY    74  71  90 S7        29.88R
RUCKER HELI 2  CLOUDY    75  72  91 S7        29.89R
FLORALA APT    LGT RAIN  74  71  91 S8        29.90R
ANDALUSIA      CLEAR     76  71  85 S5        29.87R
TROY           LGT RAIN  71  71 100 SE6       29.89R FOG
EUFALA         CLOUDY    74  72  93 CALM      29.89R
MOBILE         MOCLDY    73  70  90 SE7       29.86R
$$

!GAZ120>161-280400
...Southwest and South Central Georgia...

CITY           SKY/WX    TMP DP  RH WIND       PRES   REMARKS
THOMASVILLE    FAIR      73  73 100 S6        29.94R
BAINBRIDGE     PTCLDY    77  70  78 S6        29.93R
MOODY AFB      PTCLDY    75  69  79 S7        29.93R
VALDOSTA       PTCLDY    73  69  87 CALM      29.94R
MOULTRIE       CLEAR     73  70  88 S5        29.95R
BLAKELY        CLEAR     77  70  78 CALM      29.91R
ALBANY         LGT RAIN  76  71  85 S9        29.93R
TIFTON         FAIR      74  69  86 S6        29.93R
FITZGERALD     CLOUDY    77  69  77 S7        29.95R
CORDELE        CLOUDY    75  72  88 CALM      29.93R
AMERICUS       FAIR      75  66  73 SW7       29.94R
HOMERVILLE     FAIR     N/A N/A N/A SW3       29.95R
$$

!GMZ750-755-770-775-280400
...Coastal and Buoy Obs...

STATION/POSITION TIME  TEMP    WIND        PRES    VSBY  WAVE
                       AIR SEA DIR/SP/G                  HT/PER
                 (UTC) (F)     (DEG/KT/KT) (MB)    (MI)  (FT/S)
KEATON BEACH     0300   76     220/  7/  8 1013.3R
CEDAR KEY        0300   76     230/  3/  5 1014.3R
C TOWER          0300   73     170/ 14/ 15 1013.6R
APALACHICOLA BUO 0250   74 74  170/ 10/ 12 1013.3R         4/ 7
PANAMA CITY BUOY 0250   75 75  140/ 10/ 12 1012.1R         3/ 7
MOBILE BUOY      0300   76 76  150/  8/ 12 1011.1
ORANGE BCH AL BU 0250   75 75  170/ 12/ 14 1010.7R         4/ 7
$$




USA.gov is the U.S. government's official web portal to all federal, state and local government web resources and services.